Simultaneous Nadir Overpasses (SNOs) Predictions

Prediction of SNOs between FY3D and TERRA Satellite Orbit:

Table of predicted SNOs for the next 14.0 days since TLE Epoch: 2/17/2024
Index Date (FY3D) Time (FY3D) Lat,Lon (FY3D) SZA (FY3D ) Date (TERRA) Time (TERRA) Lat,Lon (TERRA) SZA (TERRA ) Distance(km) Time Diff (sec)
1 02/18/2024 10:38:38 -75.01,-159.61 93.33 02/18/2024 10:39:14 -75.02,-159.54 93.32 2.43 36
2 02/18/2024 11:29:22 74.92, 7.96 86.58 02/18/2024 11:28:36 74.91, 7.84 86.57 3.43 46
3 02/20/2024 21:51:47 -75.23, 31.51 93.98 02/20/2024 21:52:59 -75.10, 32.20 94.12 23.76 72
4 02/20/2024 22:42:28 75.00,-160.50 85.78 02/20/2024 22:42:21 74.99,-160.43 85.77 2.22 7
5 02/20/2024 23:33:01 -74.42, 8.45 94.84 02/20/2024 23:31:54 -74.49, 5.99 94.73 73.54 67
6 02/23/2024 09:55:33 75.04, 31.16 84.93 02/23/2024 09:56:06 75.04, 31.21 84.92 1.77 33
7 02/23/2024 10:46:16 -74.94,-161.23 95.20 02/23/2024 10:45:31 -74.95,-161.36 95.19 3.91 45
8 02/25/2024 21:08:39 75.14,-137.36 84.12 02/25/2024 21:09:50 75.10,-137.09 84.07 8.95 71
9 02/25/2024 21:59:21 -74.99, 30.40 96.06 02/25/2024 21:59:15 -75.01, 30.34 96.04 3.03 6
10 02/28/2024 09:12:26 -75.05,-138.01 96.92 02/28/2024 09:12:59 -75.04,-138.05 96.93 1.49 33
11 02/28/2024 10:03:10 74.97, 29.55 82.98 02/28/2024 10:02:20 74.98, 29.44 82.99 3.39 50
12 03/01/2024 20:25:30 -75.08, 53.69 97.83 03/01/2024 20:26:42 -75.09, 53.61 97.82 2.72 72
13 03/01/2024 21:16:15 75.04,-138.88 82.12 03/01/2024 21:16:03 75.02,-138.90 82.10 1.90 12



Historial Predications of SNOs between FY3D and TERRA
